Temperature
19 19 20 20 17 14 17 17 17 18 18 19 19 18 17 16 16 18 20 20 19 19 18 16 15 13 13 12 12 11 11 10 10 9 9 9 8 8 8 8 8 8 7 7 7 8 8 8 8
19 19 20 19 15 16 16 17 17 17 18 19 19 19 18 19 19 20 20 20 19 18 17 16 15 13 12 12 12 11 11 11 10 9 9 9 8 8 8 8 8 8 8 8 8 8 8 8 8
19 19 20 15 15 16 18 18 18 18 18 19 19 19 19 20 20 20 20 20 19 18 17 16 15 13 12 12 11 11 11 11 10 9 9 9 8 8 8 8 8 8 8 8 8 8 8 8 9
19 20 19 15 17 17 17 17 17 17 18 18 18 18 19 20 20 20 20 20 19 19 17 16 15 13 12 12 11 11 11 10 10 10 9 9 8 8 8 8 9 9 9 9 9 9 9 9 9
20 20 16 15 17 17 16 17 17 17 18 18 18 17 19 20 20 20 20 19 19 18 17 16 14 13 12 11 11 11 11 10 10 10 9 9 9 8 9 9 9 9 9 9 9 9 9 9 9
20 17 15 15 16 16 16 18 17 17 17 18 17 17 19 20 20 20 19 19 18 18 17 16 14 12 12 11 11 11 11 10 10 10 9 9 9 9 9 9 9 9 9 9 9 9 9 9 9
19 14 16 17 16 16 17 18 18 18 18 19 19 17 20 20 20 20 19 18 18 17 16 16 14 12 11 11 10 10 10 10 10 10 9 9 9 9 9 9 9 9 9 9 10 9 9 9 9
20 14 17 15 16 16 18 19 19 19 19 19 19 18 19 20 20 19 19 18 17 17 16 15 14 13 11 10 10 10 10 10 10 9 9 9 9 9 9 9 9 9 9 9 10 10 9 9 9
19 15 15 16 16 17 18 18 19 19 19 19 19 19 20 19 19 19 19 18 18 17 16 15 14 13 12 11 10 10 10 9 9 9 9 9 9 10 9 9 9 9 9 9 9 9 9 9 9
18 14 15 16 16 17 18 18 19 18 17 18 19 19 19 19 18 18 18 18 18 18 17 16 15 14 12 11 10 10 9 9 9 9 9 10 10 10 10 9 9 9 9 9 9 9 9 9 9
17 15 15 17 18 18 17 18 18 17 15 18 19 19 19 18 18 18 18 18 18 18 17 17 15 14 13 12 11 10 9 9 9 9 10 10 10 10 10 10 9 9 9 9 9 9 9 9 9
16 16 16 17 18 17 17 17 17 16 18 19 18 18 18 18 18 18 18 18 18 18 17 17 15 14 13 12 12 11 10 10 10 10 10 10 10 10 10 9 9 9 9 9 9 9 8 8 8
16 16 17 17 17 17 16 16 16 17 19 18 18 18 18 18 18 18 18 17 17 17 17 17 16 15 14 13 12 11 11 11 10 10 10 10 10 10 9 9 9 9 9 9 8 8 8 8 8
16 16 16 17 16 15 15 15 15 18 18 19 18 18 18 18 18 18 18 18 18 17 17 16 16 15 14 13 13 12 11 11 10 10 10 10 10 9 9 9 9 9 8 8 8 8 8 8 8
16 14 14 16 16 16 15 14 14 18 18 18 18 18 18 18 18 19 19 18 18 17 17 16 16 15 14 13 13 12 12 11 10 10 9 9 9 9 9 9 8 8 8 8 8 7 7 7 8
15 14 15 15 15 15 16 15 15 17 17 16 17 17 17 17 18 18 19 19 18 17 17 16 15 15 14 14 13 12 11 11 10 10 9 9 9 8 8 8 8 8 8 7 7 7 7 7 7
14 14 15 14 14 14 15 14 13 16 15 15 16 17 17 17 18 18 19 19 19 18 17 16 16 15 14 13 12 12 11 11 10 10 9 9 9 8 8 8 8 8 7 7 7 7 7 7 7
15 15 14 14 14 14 14 12 12 15 14 15 16 16 16 17 17 18 18 19 18 18 17 16 16 15 14 13 12 11 11 11 10 10 10 9 9 9 8 8 8 7 7 7 7 7 7 6 6
15 14 13 12 13 13 13 12 12 13 14 15 15 16 16 16 16 17 18 18 18 18 17 16 15 15 14 14 13 12 12 11 11 11 10 10 9 9 8 8 8 7 7 7 7 6 6 6 6
13 14 13 12 13 13 12 11 12 13 14 14 14 15 15 16 17 17 17 17 17 17 16 16 15 14 14 13 12 12 11 11 11 10 10 10 9 9 9 8 8 7 7 7 6 6 6 6 5
13 13 13 13 13 12 12 14 14 14 14 14 15 15 15 15 16 16 16 16 16 16 16 15 15 14 13 13 12 11 11 11 11 10 10 9 9 9 8 8 8 7 7 7 6 6 6 5 5
13 13 13 13 12 11 12 12 13 13 14 14 14 15 15 15 15 16 16 16 15 15 15 14 14 13 13 12 12 11 11 11 11 10 10 9 9 8 8 8 7 7 7 6 6 6 5 5 4
13 14 13 13 12 11 11 11 12 12 14 13 14 14 15 15 15 15 15 14 14 14 14 13 13 13 12 12 12 11 11 11 10 10 10 9 9 8 8 8 7 7 7 6 6 6 5 5 4
13 12 11 9 9 12 12 11 12 11 13 13 13 14 14 14 14 14 14 13 13 13 13 13 12 12 12 12 11 11 11 10 10 10 9 9 9 8 8 7 7 7 6 6 6 6 5 4 4
13 12 12 13 11 12 12 11 11 12 12 12 13 14 14 14 14 13 13 13 13 12 12 12 12 12 11 11 11 10 10 10 9 9 9 8 8 8 8 7 7 7 6 6 6 5 5 4 4
13 12 12 13 12 11 11 11 11 12 11 12 13 14 14 14 13 13 12 12 12 12 11 11 11 11 10 10 10 9 9 8 8 8 8 8 7 7 7 7 7 6 6 6 5 5 5 4 4
12 11 11 10 11 10 10 10 11 12 11 11 12 13 13 13 12 12 12 11 11 11 11 10 10 10 9 9 9 8 8 7 7 7 7 7 7 7 6 6 6 6 6 5 5 4 4 4 3
12 9 9 10 12 12 11 11 11 13 12 11 11 12 13 12 12 11 11 11 10 10 10 10 9 9 8 8 8 7 7 7 6 6 6 6 6 6 6 6 5 5 5 5 4 4 4 3 3
11 11 10 8 9 10 11 11 11 12 12 11 11 12 12 12 12 11 11 10 10 10 9 9 8 8 7 7 7 6 6 6 6 6 6 6 6 5 5 5 4 4 4 4 3 3 3 2 2
11 11 9 11 10 8 8 11 12 11 11 11 11 12 12 12 11 11 10 10 10 9 9 8 7 7 6 6 6 6 6 6 6 6 5 5 5 5 4 4 3 3 3 2 2 2 2 1 1
Wind_Speed
3 2 2 4 6 5 2 5 3 3 3 2 2 4 6 7 7 5 2 9 7 12 24 24 24 22 20 18 16 15 13 12 11 10 9 9 8 8 8 8 9 9 10 11 11 11 12 12 13
1 1 5 5 5 1 5 5 5 5 3 1 1 1 2 6 5 4 2 9 10 17 23 21 24 23 21 19 17 16 14 13 12 11 10 9 9 8 8 8 8 8 9 9 10 10 10 11 12
1 3 5 5 4 4 4 4 5 3 0 1 1 2 3 5 4 4 5 10 11 17 22 21 25 23 21 20 18 17 15 14 13 11 11 10 9 8 8 7 7 7 7 8 8 9 9 10 10
3 5 6 5 1 5 5 7 4 3 0 1 1 5 6 3 2 2 6 10 11 14 20 21 25 23 22 20 19 17 16 15 13 12 11 10 9 9 8 7 7 7 7 7 7 7 8 8 8
4 5 5 3 4 5 5 6 3 3 2 1 2 4 7 1 3 5 9 11 13 11 18 19 24 23 22 21 19 18 17 16 14 13 12 11 10 9 8 8 7 6 6 5 6 6 6 6 7
5 5 4 2 6 6 6 3 3 3 3 2 4 4 7 1 3 5 8 10 9 10 16 18 23 23 22 21 20 19 18 16 15 14 13 12 11 10 9 8 7 7 6 5 4 4 4 4 5
5 5 3 3 4 6 4 3 4 3 5 6 6 5 7 2 3 6 8 8 8 12 14 15 18 21 22 21 20 19 18 17 16 15 14 13 12 11 10 9 8 7 6 5 4 3 3 2 3
5 5 2 2 4 6 4 2 3 5 7 3 8 8 8 2 5 8 7 7 7 8 10 14 14 16 19 20 21 20 19 18 17 16 15 13 13 12 11 10 9 8 7 6 5 4 3 2 1
4 4 3 5 5 6 3 3 4 2 3 3 6 7 4 4 8 9 6 5 7 10 8 12 13 13 16 18 20 20 20 19 18 17 16 14 11 10 9 10 10 9 8 7 7 6 5 4 2
5 3 7 6 6 5 4 4 5 5 6 6 7 6 3 6 8 10 11 13 14 16 13 10 11 12 14 16 18 17 18 18 17 15 15 14 11 9 7 9 11 11 10 9 9 8 6 5 3
4 6 5 5 6 5 5 5 4 4 9 10 11 9 5 7 9 11 12 13 17 14 13 13 11 13 14 13 14 14 15 15 15 15 14 13 12 10 8 7 8 7 7 6 5 4 2 3 4
2 5 5 5 2 3 5 5 4 7 12 7 6 6 5 10 13 16 17 15 11 10 14 13 12 12 13 14 13 13 13 13 13 15 16 15 12 10 9 9 9 7 6 5 6 5 5 5 7
3 5 4 5 7 6 6 7 6 9 11 9 8 7 9 11 14 14 12 10 10 12 12 12 11 11 12 12 12 13 13 14 16 17 18 18 14 11 11 11 11 11 10 9 8 8 8 8 9
3 5 8 8 6 3 3 4 3 9 6 9 8 8 9 10 12 11 12 12 13 14 13 12 13 12 12 10 10 11 13 14 15 17 19 21 18 15 13 12 12 13 14 14 12 11 10 10 10
2 6 9 4 3 2 2 8 5 7 9 11 11 10 10 8 8 11 13 14 13 11 10 12 13 11 11 10 11 12 14 15 14 15 19 20 20 18 16 12 12 15 17 15 13 12 10 8 9
3 4 5 6 5 4 3 8 6 6 9 10 10 11 11 10 7 7 9 10 10 9 9 11 12 12 12 10 11 11 13 14 14 16 17 20 20 20 17 13 13 17 17 14 10 7 5 7 7
4 3 4 8 4 4 2 9 9 7 7 7 9 10 10 11 11 10 6 6 7 9 9 10 11 12 11 9 9 10 11 13 14 16 16 18 20 20 18 15 15 16 14 12 10 7 6 8 9
4 4 4 6 6 4 5 9 11 9 4 4 7 9 10 12 12 12 10 3 2 5 7 9 10 9 8 6 5 5 6 7 12 14 17 18 19 20 20 16 15 15 9 8 8 9 8 7 8
3 4 7 8 5 4 6 9 10 8 3 4 7 9 10 10 10 10 11 8 5 3 4 6 7 7 7 5 5 5 6 5 5 11 16 18 20 20 19 16 13 13 11 13 12 9 9 9 5
3 4 7 7 3 2 6 8 6 2 2 2 4 7 9 10 13 13 12 10 7 3 1 3 5 7 7 6 4 3 3 4 5 8 14 19 20 20 19 16 11 11 10 11 11 10 6 6 7
5 6 6 5 6 3 5 6 2 1 2 2 3 5 7 8 10 11 11 11 9 7 3 1 3 5 6 6 4 2 1 1 2 5 7 13 18 20 20 19 16 11 12 13 14 14 12 11 9
6 5 5 2 2 5 4 4 5 2 4 2 3 5 7 8 8 8 9 10 9 8 5 3 1 2 4 6 5 6 6 7 7 5 6 7 14 18 20 20 17 13 12 14 15 14 13 12 11
6 1 2 1 2 2 1 2 8 2 5 6 3 2 4 5 7 8 8 7 8 7 7 5 4 2 2 4 6 6 7 8 6 4 6 7 8 13 17 18 15 14 13 14 15 13 14 14 14
4 5 5 5 4 2 2 4 6 4 7 5 4 3 2 3 6 7 7 7 8 8 8 7 6 4 1 2 4 6 8 8 8 8 8 7 6 7 12 14 14 13 13 15 16 15 15 15 16
4 4 4 4 3 4 1 3 8 6 5 6 7 6 3 2 4 5 7 8 9 9 8 7 7 5 3 1 2 5 7 8 9 9 8 8 7 7 10 11 12 12 13 14 13 14 16 17 16
4 6 5 3 4 5 3 5 7 5 4 2 5 6 4 2 2 3 5 6 6 8 7 7 7 5 5 4 3 4 5 5 6 8 8 8 8 9 9 9 10 12 13 14 14 14 15 14 17
6 3 5 5 2 4 6 7 8 0 3 4 5 3 3 2 1 2 4 5 5 6 6 6 6 6 6 6 5 5 5 5 7 8 8 8 9 9 9 9 10 11 12 13 13 13 15 15 16
4 8 5 4 2 4 7 6 5 4 3 3 3 4 3 2 1 1 2 3 4 4 4 5 5 5 5 6 6 5 6 7 7 8 9 9 10 9 10 10 10 11 11 12 12 13 14 15 15
5 4 5 4 4 4 4 7 6 6 4 5 5 4 4 3 2 0 1 3 3 4 4 5 6 6 7 7 7 7 8 8 8 8 9 10 10 10 10 11 11 11 12 11 12 13 13 15 16
6 7 8 5 5 5 4 8 4 3 1 3 3 3 2 2 2 1 1 3 4 5 6 6 6 6 7 7 7 8 9 9 9 10 10 10 10 10 11 11 11 12 12 11 12 14 14 15 16
Wind_Direction
351 37 69 57 53 49 282 261 253 258 246 241 180 171 178 184 180 230 288 156 158 157 173 183 176 176 176 175 173 169 166 163 159 153 145 139 132 122 113 105 97 90 84 80 77 74 73 74 75
15 90 55 60 82 45 282 259 256 238 256 19 65 104 209 245 227 251 220 179 163 162 172 182 177 177 178 177 175 174 172 170 167 162 155 150 144 135 125 116 107 99 92 87 82 78 76 78 79
131 54 80 74 110 184 261 264 263 264 56 30 300 259 240 245 228 241 205 169 157 164 173 181 178 179 180 180 178 178 177 175 173 169 165 160 154 147 139 130 120 110 102 95 88 83 80 81 83
91 50 57 75 199 225 237 274 287 277 11 161 235 288 272 247 234 227 156 158 156 165 174 183 180 181 182 182 182 181 181 180 178 176 173 170 165 159 150 142 134 126 116 106 97 89 83 83 88
59 76 59 23 276 265 259 277 248 208 231 245 179 266 274 241 69 123 148 161 163 164 175 185 183 184 185 185 185 185 185 185 184 183 181 178 175 169 162 157 152 144 135 121 109 99 89 85 90
56 66 78 284 277 284 277 251 167 197 254 248 194 242 261 171 140 159 159 163 163 162 174 184 187 188 188 188 188 188 189 190 190 188 188 187 184 179 175 173 169 164 156 145 129 114 101 93 93
101 97 166 233 279 295 277 175 185 212 247 238 190 210 272 259 168 151 152 149 156 167 174 186 195 192 192 192 192 192 193 194 195 194 194 194 192 190 188 186 185 182 178 171 161 144 127 113 104
117 102 136 261 265 278 273 246 236 211 245 223 164 199 249 307 112 116 121 137 157 174 183 190 199 195 192 194 196 196 196 198 199 199 199 199 199 198 197 196 197 197 197 195 195 191 191 184 166
84 81 237 238 228 260 267 277 278 255 255 247 216 222 242 109 119 118 125 156 179 192 197 194 199 197 190 190 196 198 199 201 202 203 201 201 199 198 202 196 205 210 211 214 217 219 222 224 240
86 158 233 224 211 237 270 256 269 289 281 272 269 253 135 148 161 167 179 188 194 200 199 197 197 193 189 189 194 196 197 200 201 200 199 194 186 188 191 197 211 222 224 226 229 232 236 227 221
146 199 236 249 235 247 270 262 237 230 267 249 254 265 186 183 198 202 203 201 203 199 198 199 196 192 188 187 187 189 190 191 192 192 189 181 179 182 185 196 214 237 247 241 246 262 223 203 219
193 242 232 259 253 247 248 265 261 220 242 266 261 263 200 204 211 214 214 213 203 197 201 198 193 192 192 188 185 185 184 185 184 187 185 177 174 180 186 197 211 227 237 236 233 236 238 238 239
234 271 273 264 284 263 265 258 261 263 275 303 299 276 242 229 227 226 225 221 202 207 203 198 193 193 191 189 188 187 188 189 188 187 189 187 182 186 194 204 214 225 231 232 233 236 241 246 249
281 292 298 289 287 268 266 287 241 279 324 335 335 315 285 253 241 235 228 224 213 211 205 196 197 196 192 194 194 192 191 191 190 192 193 195 193 193 196 205 214 223 227 230 231 234 238 244 247
328 327 322 308 334 313 311 321 250 285 337 339 339 332 325 304 266 240 232 228 221 213 199 195 198 194 194 198 198 194 191 191 194 198 200 199 200 200 200 205 214 222 226 228 231 236 240 246 246
50 17 325 308 343 338 359 300 280 338 348 340 340 342 342 338 323 282 251 233 218 204 193 193 199 197 200 201 199 195 191 194 200 201 202 205 206 205 203 209 220 222 220 218 219 221 225 237 239
23 341 292 303 333 353 356 274 284 337 344 343 346 347 350 354 359 348 317 245 213 198 187 186 194 195 197 195 196 198 195 202 205 204 206 209 210 209 209 217 223 216 212 214 222 216 214 232 239
260 271 278 280 306 339 284 273 298 328 338 353 357 357 2 7 357 349 359 3 171 179 181 184 192 191 180 176 183 195 209 213 211 211 214 212 214 213 215 224 223 211 209 217 218 226 217 226 237
213 238 267 268 286 304 276 284 299 316 349 16 10 6 5 358 346 6 20 33 61 103 164 184 186 182 167 168 183 201 224 220 221 222 222 218 219 216 217 228 222 212 219 225 219 219 225 232 213
207 257 273 289 305 291 299 291 290 303 309 329 356 4 1 358 4 10 17 27 34 47 135 191 193 185 183 181 169 180 191 214 219 224 227 225 223 221 223 226 228 218 224 227 221 212 216 223 190
225 220 243 274 326 7 337 325 323 346 346 347 18 16 12 11 4 2 10 17 23 25 12 205 201 194 189 173 150 133 117 318 253 232 232 230 227 227 228 228 228 224 221 230 227 219 218 230 213
257 237 214 244 335 308 20 308 281 271 301 302 346 13 17 12 10 12 14 14 17 13 19 37 89 170 178 170 177 193 213 235 239 229 232 230 225 228 230 232 230 229 227 231 232 224 222 224 230
216 104 153 202 185 304 338 202 285 283 246 242 241 15 26 20 20 20 17 16 20 21 31 38 56 71 149 179 194 206 232 247 262 260 255 249 236 232 233 233 233 234 233 234 235 229 223 223 230
135 80 64 58 81 308 224 178 279 236 220 218 199 176 89 40 32 26 21 27 27 27 33 35 47 44 59 183 207 219 239 256 272 272 268 265 253 242 237 236 235 237 237 237 237 235 229 229 229
100 79 12 350 6 262 241 204 252 257 247 217 191 181 165 87 50 31 28 26 22 21 21 24 32 26 18 4 243 241 247 255 261 269 270 272 269 258 248 237 237 239 239 240 239 236 235 232 231
160 140 158 233 261 291 307 239 255 284 306 222 162 159 156 119 73 48 37 30 21 19 18 17 18 9 360 352 316 281 264 260 263 266 266 268 269 268 262 245 241 241 241 242 240 239 238 237 235
131 158 156 134 175 278 287 290 305 36 62 95 124 149 186 172 118 56 35 29 19 13 9 4 4 356 348 342 330 319 304 283 278 279 273 270 269 273 268 260 254 250 246 245 243 243 240 238 237
136 141 107 127 179 279 296 284 258 254 196 172 185 213 235 213 162 65 25 8 1 357 349 354 357 343 332 333 327 317 310 299 290 289 286 282 279 277 276 272 265 261 256 250 246 248 246 242 241
129 132 123 122 159 177 275 277 228 220 209 199 218 234 239 213 187 189 338 341 341 343 348 347 344 340 333 329 324 318 310 304 299 292 286 284 283 280 277 274 271 268 264 258 253 251 248 247 247
176 175 153 165 213 183 203 269 280 214 208 182 212 241 241 188 173 193 321 332 336 337 337 335 332 329 320 316 315 309 304 303 300 294 290 287 284 282 277 276 274 272 269 262 257 258 254 250 250
Height
1536 1537 1539 1541 1545 1557 1557 1551 1546 1544 1543 1541 1541 1542 1542 1544 1546 1547 1540 1538 1539 1540 1542 1544 1546 1548 1551 1553 1555 1557 1558 1559 1560 1561 1562 1562 1563 1563 1563 1563 1564 1564 1563 1563 1563 1562 1562 1561 1561
1537 1538 1541 1541 1553 1564 1559 1549 1546 1543 1542 1541 1541 1541 1541 1539 1539 1538 1537 1537 1538 1540 1541 1543 1545 1548 1550 1552 1554 1556 1558 1559 1560 1561 1562 1562 1563 1563 1563 1564 1564 1564 1564 1563 1563 1563 1563 1562 1562
1537 1539 1541 1545 1556 1561 1553 1544 1542 1541 1540 1541 1541 1541 1540 1538 1537 1537 1537 1537 1538 1539 1541 1543 1545 1547 1549 1552 1554 1556 1557 1559 1560 1561 1562 1562 1563 1563 1564 1564 1564 1564 1564 1564 1563 1563 1563 1563 1563
1538 1540 1542 1550 1553 1551 1547 1542 1541 1540 1540 1540 1541 1540 1539 1537 1536 1536 1536 1536 1537 1538 1540 1542 1544 1546 1549 1551 1553 1555 1557 1558 1559 1561 1561 1562 1563 1563 1564 1564 1564 1564 1564 1564 1564 1564 1564 1564 1563
1539 1540 1548 1556 1552 1547 1543 1540 1539 1539 1539 1540 1540 1539 1537 1535 1534 1534 1535 1535 1536 1538 1539 1541 1543 1546 1548 1550 1552 1554 1556 1558 1559 1560 1561 1562 1563 1563 1564 1564 1564 1564 1564 1564 1564 1564 1564 1564 1564
1540 1541 1556 1559 1552 1546 1542 1539 1539 1539 1539 1539 1539 1538 1535 1534 1533 1533 1534 1535 1536 1537 1538 1540 1542 1545 1547 1549 1551 1553 1555 1557 1558 1560 1561 1562 1563 1563 1564 1564 1564 1564 1565 1565 1565 1565 1565 1565 1565
1541 1546 1553 1552 1552 1547 1541 1539 1538 1538 1538 1537 1537 1536 1532 1532 1531 1531 1532 1533 1534 1536 1537 1539 1541 1543 1546 1548 1550 1552 1554 1556 1558 1559 1560 1561 1562 1563 1563 1564 1564 1564 1565 1565 1565 1565 1565 1565 1565
1540 1545 1550 1553 1551 1547 1540 1538 1537 1537 1536 1535 1535 1533 1530 1530 1530 1529 1530 1531 1532 1534 1535 1537 1539 1541 1543 1546 1548 1551 1553 1554 1556 1558 1559 1560 1562 1562 1563 1563 1564 1564 1564 1564 1565 1565 1565 1565 1565
1540 1549 1554 1550 1548 1543 1538 1538 1537 1535 1534 1532 1531 1530 1528 1527 1527 1527 1527 1528 1529 1530 1532 1534 1536 1538 1541 1543 1546 1549 1551 1553 1555 1556 1558 1559 1560 1561 1562 1562 1563 1563 1564 1564 1564 1564 1564 1564 1564
1540 1551 1548 1542 1541 1539 1537 1536 1535 1534 1532 1529 1527 1526 1525 1524 1523 1523 1523 1524 1525 1527 1528 1530 1533 1535 1538 1540 1543 1546 1548 1550 1552 1554 1556 1557 1558 1560 1561 1561 1562 1562 1563 1563 1563 1563 1563 1563 1563
1539 1543 1540 1538 1537 1537 1535 1534 1532 1531 1529 1525 1524 1522 1521 1520 1519 1518 1519 1520 1522 1524 1526 1527 1530 1532 1535 1537 1540 1542 1545 1547 1549 1551 1553 1555 1556 1558 1559 1560 1560 1561 1561 1561 1562 1561 1561 1562 1561
1539 1538 1537 1536 1535 1535 1533 1532 1530 1528 1524 1523 1521 1519 1517 1516 1515 1514 1515 1516 1518 1520 1522 1525 1527 1529 1532 1534 1537 1539 1542 1544 1546 1548 1550 1552 1554 1555 1557 1558 1559 1559 1559 1560 1560 1560 1560 1559 1559
1538 1536 1535 1534 1533 1532 1531 1529 1528 1523 1521 1520 1518 1515 1513 1511 1510 1510 1511 1513 1514 1516 1519 1521 1524 1526 1529 1531 1533 1536 1538 1541 1543 1545 1547 1549 1551 1552 1554 1555 1556 1556 1557 1557 1557 1557 1557 1556 1556
1537 1536 1534 1531 1530 1529 1528 1527 1526 1520 1520 1518 1515 1512 1509 1506 1505 1505 1506 1507 1509 1512 1515 1518 1521 1523 1526 1528 1530 1532 1535 1538 1540 1542 1544 1546 1548 1549 1551 1552 1552 1553 1554 1554 1554 1554 1553 1552 1552
1536 1536 1533 1529 1529 1528 1528 1527 1524 1520 1518 1515 1512 1510 1507 1504 1502 1501 1502 1503 1505 1508 1511 1514 1517 1520 1522 1524 1527 1529 1532 1534 1536 1538 1540 1542 1544 1545 1546 1547 1548 1549 1550 1550 1549 1549 1548 1547 1547
1537 1540 1539 1531 1529 1528 1531 1532 1522 1520 1517 1514 1512 1509 1506 1503 1501 1499 1499 1500 1502 1504 1507 1510 1513 1516 1518 1521 1523 1526 1528 1530 1532 1534 1536 1538 1539 1540 1541 1542 1543 1544 1545 1544 1544 1543 1542 1542 1541
1542 1545 1542 1536 1530 1529 1530 1529 1520 1520 1517 1514 1513 1510 1507 1505 1502 1500 1499 1499 1500 1501 1504 1506 1509 1512 1515 1518 1520 1522 1524 1526 1528 1530 1531 1533 1534 1535 1536 1536 1537 1538 1538 1538 1537 1536 1536 1535 1534
1544 1542 1542 1540 1532 1531 1531 1528 1520 1518 1516 1515 1514 1512 1509 1506 1504 1502 1501 1500 1500 1501 1502 1504 1506 1509 1511 1514 1516 1518 1520 1521 1523 1525 1526 1528 1529 1529 1530 1530 1530 1530 1530 1530 1530 1529 1529 1528 1527
1538 1541 1543 1539 1532 1532 1530 1528 1522 1518 1517 1516 1514 1513 1511 1510 1508 1506 1504 1502 1502 1502 1502 1504 1505 1507 1509 1511 1512 1514 1515 1517 1519 1520 1521 1522 1522 1523 1523 1522 1522 1522 1522 1522 1522 1521 1520 1519 1520
1539 1541 1542 1537 1532 1532 1531 1528 1521 1518 1518 1517 1516 1514 1513 1511 1509 1508 1506 1505 1504 1504 1504 1504 1505 1506 1507 1509 1510 1512 1513 1513 1515 1516 1516 1516 1516 1516 1515 1515 1514 1514 1513 1512 1512 1512 1511 1510 1511
1537 1540 1538 1537 1534 1532 1532 1526 1521 1519 1518 1518 1517 1516 1514 1513 1512 1510 1509 1508 1507 1506 1505 1505 1505 1506 1507 1507 1508 1509 1509 1509 1510 1510 1510 1510 1510 1509 1508 1507 1506 1505 1504 1502 1502 1502 1501 1500 1500
1539 1532 1534 1535 1538 1542 1538 1541 1525 1520 1519 1518 1517 1516 1516 1515 1514 1513 1512 1510 1509 1508 1507 1507 1507 1507 1507 1507 1507 1507 1507 1506 1506 1506 1505 1504 1503 1502 1501 1499 1498 1496 1494 1493 1492 1492 1490 1490 1488
1531 1530 1532 1534 1538 1542 1541 1543 1531 1522 1520 1518 1517 1517 1516 1516 1516 1515 1514 1513 1512 1511 1510 1509 1508 1508 1508 1507 1507 1506 1505 1504 1503 1501 1500 1498 1497 1495 1493 1491 1490 1488 1486 1484 1483 1481 1480 1478 1477
1528 1532 1537 1542 1545 1545 1537 1542 1533 1524 1517 1515 1515 1516 1517 1517 1517 1516 1516 1515 1514 1513 1512 1511 1510 1509 1508 1507 1506 1505 1503 1501 1499 1497 1495 1493 1491 1489 1487 1484 1482 1479 1477 1475 1473 1471 1470 1468 1466
1529 1538 1546 1541 1547 1543 1537 1540 1531 1515 1513 1513 1513 1515 1516 1517 1517 1517 1516 1516 1515 1514 1513 1512 1510 1509 1508 1506 1505 1503 1501 1498 1495 1493 1490 1487 1484 1482 1480 1477 1474 1471 1468 1466 1464 1461 1459 1457 1455
1529 1535 1545 1546 1548 1547 1539 1538 1523 1513 1511 1510 1511 1514 1515 1516 1517 1517 1516 1516 1515 1514 1513 1512 1510 1509 1507 1505 1502 1500 1497 1494 1491 1488 1485 1481 1478 1475 1472 1469 1465 1462 1459 1456 1454 1450 1448 1446 1444
1530 1535 1536 1547 1548 1550 1543 1533 1520 1511 1511 1511 1512 1513 1514 1515 1516 1516 1516 1515 1515 1514 1512 1511 1509 1507 1504 1502 1499 1496 1493 1490 1486 1483 1479 1476 1472 1468 1465 1461 1457 1454 1450 1447 1444 1440 1437 1435 1432
1525 1532 1542 1546 1547 1547 1542 1535 1526 1512 1512 1512 1512 1512 1513 1514 1514 1515 1515 1515 1514 1513 1511 1509 1507 1504 1501 1498 1495 1492 1488 1485 1481 1477 1473 1469 1465 1461 1456 1452 1448 1444 1441 1437 1434 1429 1426 1424 1420
1529 1532 1537 1546 1547 1549 1546 1533 1514 1511 1509 1510 1511 1511 1511 1512 1513 1513 1514 1513 1512 1511 1509 1506 1504 1501 1497 1494 1491 1487 1483 1479 1475 1471 1466 1461 1456 1452 1447 1443 1438 1434 1430 1427 1423 1418 1415 1412 1409
1523 1527 1534 1539 1542 1549 1550 1533 1508 1508 1508 1508 1509 1509 1510 1510 1511 1512 1512 1511 1510 1508 1505 1503 1500 1497 1493 1489 1486 1482 1477 1473 1468 1463 1458 1453 1448 1443 1438 1433 1428 1424 1420 1416 1412 1408 1404 1401 1397